�N����,����,����,����,����,�C��,���x,�~����,�S�V����,�ő�u�ԕ���,,,,,
,,,,,,,,,����,����,����,�N��,,
yyyy/mm/dd,hh:mm:ss,(16),16����,m/s,��,%,mm,KW/�u,(16),16����,m/s,Time,,
2021/1/1,1:00:00,13,���k��,1.6,-17.7,53.5,0,0,12,��,2.8,55,,
2021/1/1,2:00:00,12,��,2.5,-13.7,51.4,0,0,12,��,4.7,3,,
2021/1/1,3:00:00,11,���쐼,2,-15.4,60.3,0,0,12,��,4.8,10,,
2021/1/1,4:00:00,13,���k��,1.4,-15.4,57,0,0,12,��,4,24,,
2021/1/1,5:00:00,11,���쐼,1.2,-22.6,68.5,0,0,13,���k��,3.4,9,,
2021/1/1,6:00:00,16,�É�,0.1,-24.2,76.8,0,0,11,���쐼,1.8,9,,
2021/1/1,7:00:00,-23.1,#N/A,84.3,0,0.01,,,,,,,,
2021/1/1,8:00:00,13,���k��,2.5,-22.3,76.8,0,0.08,12,��,4.1,59,,
2021/1/1,9:00:00,14,�k��,2.2,-10.8,40.9,0,0.27,14,�k��,3.7,51,,
2021/1/1,10:00:00,13,���k��,5.9,-7.9,25.1,0,0.42,13,���k��,10.9,48,,
2021/1/1,11:00:00,14,�k��,4.5,-7.2,23.9,0,0.5,13,���k��,9.4,19,,
2021/1/1,12:00:00,13,���k��,6.5,-7.2,25.6,0,0.53,14,�k��,11.6,52,,
2021/1/1,13:00:00,14,�k��,4.6,-6.9,26.4,0,0.5,13,���k��,11.2,47,,
2021/1/1,14:00:00,13,���k��,6.1,-8.1,32.9,0,0.31,13,���k��,10.2,15,,
2021/1/1,15:00:00,13,���k��,3.5,-9.1,36.3,0,0.1,13,���k��,8.6,2,,
2021/1/1,16:00:00,16,�k,2.2,-11.3,48.6,0,0.03,12,��,8.4,7,,
2021/1/1,17:00:00,15,�k�k��,1.7,-10.9,50.1,0,0.01,15,�k�k��,4.6,3,,
2021/1/1,18:00:00,13,���k��,2.2,-16.7,65.9,0,0,15,�k�k��,3.4,10,,
2021/1/1,19:00:00,12,��,1.4,-19.8,78.9,0,0,14,�k��,2.7,19,,
2021/1/1,20:00:00,13,���k��,2.2,-18.5,86.9,0,0,14,�k��,3.2,59,,
2021/1/1,21:00:00,13,���k��,2.1,-21.9,83.6,0,0,12,��,3.8,40,,
2021/1/1,22:00:00,16,�k,2.1,-23.1,84.7,0,0,16,�k,3.1,54,,
2021/1/1,23:00:00,13,���k��,2.5,-24.4,82.7,0,0,13,���k��,3.5,57,,
2021/1/1,0:00:00,12,��,1.9,-24,83.3,0,0,13,���k��,3.6,1,,
2021/1/2,1:00:00,13,���k��,1.5,-25,82.3,0,0,13,���k��,2.9,53,,
2021/1/2,2:00:00,-22.7,#N/A,84.8,0,0,,,,,,,,
2021/1/2,3:00:00,13,���k��,2.2,-21.1,84.2,0,0,13,���k��,5.4,37,,
2021/1/2,4:00:00,13,���k��,2.4,-22,81.8,0,0,13,���k��,3.9,53,,
2021/1/2,5:00:00,12,��,1.7,-22.6,81.2,0,0,15,�k�k��,3.4,31,,
2021/1/2,6:00:00,13,���k��,1.7,-23.2,79.5,0,0,13,���k��,3.3,17,,
2021/1/2,7:00:00,13,���k��,2.5,-25.2,81.3,0,0.01,13,���k��,3.6,34,,
2021/1/2,8:00:00,12,��,1.7,-20.6,75.9,0,0.11,13,���k��,4.4,26,,
2021/1/2,9:00:00,15,�k�k��,1.1,-16.5,63.3,0,0.29,13,���k��,4.1,1,,
2021/1/2,10:00:00,16,�É�,0.2,-12,56.1,0,0.43,12,��,2.1,37,,
2021/1/2,11:00:00,16,�É�,0.2,-7.2,28.6,0,0.52,7,��쓌,7.5,41,,
2021/1/2,12:00:00,12,��,0.6,-6.3,25.5,0,0.54,9,��쐼,3.6,23,,
2021/1/2,13:00:00,16,�É�,0,-5.8,26.6,0,0.51,14,�k��,1.2,30,,
2021/1/2,14:00:00,16,�É�,0.1,-5.1,25.3,0,0.42,11,���쐼,0.7,51,,
2021/1/2,15:00:00,14,�k��,1.8,-6.2,30.1,0.5,0.27,15,�k�k��,3.1,16,,
2021/1/2,16:00:00,14,�k��,1.5,-9.3,31.9,0,0.1,15,�k�k��,3,44,,
2021/1/2,17:00:00,14,�k��,1.8,-12.6,53.1,0,0.01,14,�k��,2.7,50,,
2021/1/2,18:00:00,13,���k��,1.7,-15.8,74.9,0,0,13,���k��,2.8,34,,
2021/1/2,19:00:00,13,���k��,2.7,-17.7,72.6,0,0,14,�k��,4.1,44,,
2021/1/2,20:00:00,16,�k,1.9,-15,70,0,0,14,�k��,4.9,48,,
2021/1/2,21:00:00,14,�k��,3.7,-12.9,66,0,0,13,���k��,5.7,17,,
2021/1/2,22:00:00,14,�k��,1.1,-16.6,70.3,0,0,14,�k��,5.6,4,,
2021/1/2,23:00:00,13,���k��,1.7,-18,82.8,0,0,13,���k��,2.7,51,,
2021/1/2,0:00:00,14,�k��,1.7,-19.7,82.3,0,0,15,�k�k��,2.9,57,,
2021/1/3,1:00:00,13,���k��,1.2,-17.4,78.7,0,0,14,�k��,4.4,36,,
2021/1/3,2:00:00,13,���k��,1.5,-17.8,74.3,0,0,14,�k��,4.1,26,,
2021/1/3,3:00:00,13,���k��,1.9,-22.1,75.2,0,0,12,��,3.5,39,,
2021/1/3,4:00:00,13,���k��,1.5,-21.9,84.2,0,0,14,�k��,3.1,10,,
2021/1/3,5:00:00,14,�k��,2.5,-20.6,83.4,0,0,12,��,3.8,13,,
2021/1/3,6:00:00,13,���k��,2,-20.5,82,0,0,12,��,4.3,29,,
2021/1/3,7:00:00,13,���k��,1.3,-20.3,83.8,0,0.01,12,��,4.5,6,,
2021/1/3,8:00:00,14,�k��,2.2,-16.8,77,0,0.1,13,���k��,5.2,42,,
2021/1/3,9:00:00,13,���k��,2.3,-14.4,70.8,0,0.27,13,���k��,3.7,52,,
2021/1/3,10:00:00,13,���k��,0.7,-10.7,64.5,0,0.42,13,���k��,3.4,46,,
2021/1/3,11:00:00,16,�É�,0.1,-6.6,59.6,0,0.5,3,���k��,6.9,19,,
2021/1/3,12:00:00,2,�k��,1.3,-2.8,71.6,0,0.53,2,�k��,1.9,55,,
2021/1/3,13:00:00,4,��,0.5,-2.4,59.4,0,0.5,4,��,2.3,27,,
2021/1/3,14:00:00,4,��,0.3,-1.1,51.7,0,0.41,4,��,1.2,59,,
2021/1/3,15:00:00,4,��,0.6,-2.1,51.5,0,0.27,3,���k��,1.9,26,,
2021/1/3,16:00:00,11,���쐼,0.4,-11.4,63.1,0,0.09,13,���k��,1.1,51,,
2021/1/3,17:00:00,12,��,2.2,-4.9,46.4,0,0.01,11,���쐼,5.3,45,,
2021/1/3,18:00:00,14,�k��,1.2,-10.5,62.9,0,0,13,���k��,3,17,,
2021/1/3,19:00:00,13,���k��,1.2,-15.9,78.8,0,0,15,�k�k��,2.3,43,,
2021/1/3,20:00:00,13,���k��,1.7,-17.1,79.1,0,0,12,��,3.5,55,,
2021/1/3,21:00:00,-14.2,#N/A,82,0,0,,,,,,,,
2021/1/3,22:00:00,13,���k��,2.1,-15.5,83.5,0,0,13,���k��,5.2,3,,
2021/1/3,23:00:00,13,���k��,2.6,-16.7,83.2,0,0,12,��,3.2,54,,
2021/1/3,0:00:00,13,���k��,1.9,-17.1,88.4,0,0,12,��,4.4,9,,
2021/1/4,1:00:00,13,���k��,3,-17.3,84,0,0,14,�k��,3.7,53,,
2021/1/4,2:00:00,13,���k��,2.3,-16.8,85.5,0,0,13,���k��,4.9,30,,
2021/1/4,3:00:00,12,��,2.3,-17.5,86.5,0,0,13,���k��,3.1,31,,
2021/1/4,4:00:00,13,���k��,3.3,-16.5,87.5,0,0,13,���k��,5.2,58,,
2021/1/4,5:00:00,14,�k��,3,-14.9,84.8,0,0,14,�k��,5.2,55,,
2021/1/4,6:00:00,13,���k��,3.1,-18.2,84.8,0,0,13,���k��,4.8,46,,
2021/1/4,7:00:00,13,���k��,1.8,-18.4,86.4,0,0.01,12,��,4.3,8,,
2021/1/4,8:00:00,13,���k��,3,-16.7,82.4,0,0.09,12,��,4.8,14,,
2021/1/4,9:00:00,13,���k��,2.7,-11.8,71.3,0,0.27,14,�k��,4.5,22,,
2021/1/4,10:00:00,13,���k��,1.3,-7,60.5,0,0.41,13,���k��,3,9,,
2021/1/4,11:00:00,-0.5,#N/A,36.7,0,0.51,,,,,,,,
2021/1/4,12:00:00,12,��,1.1,-2.8,41.5,0,0.54,15,�k�k��,3.1,48,,
2021/1/4,13:00:00,15,�k�k��,2.6,-2.7,33.4,0,0.51,16,�k,4.8,57,,
2021/1/4,14:00:00,16,�k,2.1,-2,38.1,0,0.43,15,�k�k��,4.7,13,,
2021/1/4,15:00:00,16,�k,2.5,-2.7,38.2,0,0.34,13,���k��,5.8,14,,
2021/1/4,16:00:00,12,��,3,-5,43.1,0,0.07,13,���k��,4.2,57,,
2021/1/4,17:00:00,13,���k��,1,-10.9,58.8,0,0.01,13,���k��,4.6,12,,
2021/1/4,18:00:00,12,��,0.8,-11.3,69,0,0,11,���쐼,3.1,28,,
2021/1/4,19:00:00,13,���k��,2,-14.5,72,0,0,13,���k��,3.5,59,,
2021/1/4,20:00:00,13,���k��,2.3,-14.6,73.7,0,0,12,��,4,28,,
2021/1/4,21:00:00,13,���k��,2.3,-16.5,81.9,0,0,13,���k��,4.1,1,,
2021/1/4,22:00:00,13,���k��,1.7,-16.9,82.1,0,0,12,��,4,14,,
2021/1/4,23:00:00,13,���k��,2.3,-17,83.5,0,0,13,���k��,5.8,34,,
2021/1/4,0:00:00,13,���k��,2.3,-18.4,86.3,0,0,12,��,4.5,56,,
2021/1/5,1:00:00,13,���k��,2.1,-16.9,88.4,0,0,12,��,4.4,4,,
2021/1/5,2:00:00,13,���k��,2.3,-19.4,86.7,0,0,12,��,4,7,,
2021/1/5,3:00:00,12,��,2.9,-18.2,86.3,0,0,12,��,5.2,40,,
2021/1/5,4:00:00,13,���k��,2.7,-19.4,87.7,0,0,11,���쐼,5,1,,
2021/1/5,5:00:00,13,���k��,2.5,-19.4,86.9,0,0,13,���k��,4.2,38,,
2021/1/5,6:00:00,-20.2,#N/A,84.9,0,0,,,,,,,,
2021/1/5,7:00:00,13,���k��,2.5,-20.1,83.7,0,0.01,12,��,4.5,49,,
2021/1/5,8:00:00,13,���k��,2.2,-17.8,77.4,0,0.1,13,���k��,4.6,53,,
2021/1/5,9:00:00,16,�k,1.3,-13.4,71,0,0.27,13,���k��,3.6,17,,
2021/1/5,10:00:00,2,�k��,1.8,-5.9,61.6,0,0.42,13,���k��,2.5,21,,
2021/1/5,11:00:00,2,�k��,2.6,-3.7,48,0,0.51,3,���k��,3.9,56,,
2021/1/5,12:00:00,2,�k��,2.1,-2.9,42.1,0,0.53,2,�k��,4.6,18,,
2021/1/5,13:00:00,3,���k��,2.7,-2.7,49.2,0,0.5,2,�k��,5,12,,
2021/1/5,14:00:00,4,��,2.2,-3.1,49.5,0,0.41,4,��,4.3,39,,
2021/1/5,15:00:00,3,���k��,1.5,-3.9,46.6,0,0.27,5,���쓌,3.6,30,,
2021/1/5,16:00:00,2,�k��,0.7,-8.9,53.7,0,0.1,6,�쓌,2.4,5,,
2021/1/5,17:00:00,13,���k��,1.3,-10.8,72.8,0,0.01,13,���k��,1.6,55,,
2021/1/5,18:00:00,13,���k��,1.8,-11.6,72.7,0,0,13,���k��,2.5,0,,
2021/1/5,19:00:00,15,�k�k��,1.9,-11.7,78,0,0,13,���k��,3.2,24,,
2021/1/5,20:00:00,13,���k��,2.5,-15.7,79.7,0,0,13,���k��,3.7,58,,
2021/1/5,21:00:00,13,���k��,1.6,-16.7,79,0,0,13,���k��,4.1,1,,
2021/1/5,22:00:00,14,�k��,1.9,-16.1,84,0,0,13,���k��,5.2,13,,
2021/1/5,23:00:00,13,���k��,2,-16.3,87,0,0,13,���k��,4.4,46,,
2021/1/5,0:00:00,13,���k��,1.8,-16.2,88.1,0,0,13,���k��,3.4,37,,
2021/1/6,1:00:00,13,���k��,1.9,-17.8,89.2,0,0,12,��,3.1,40,,
2021/1/6,2:00:00,13,���k��,2.1,-17.5,90.5,0,0,14,�k��,3,59,,
2021/1/6,3:00:00,12,��,2.4,-17.9,90.2,0,0,14,�k��,3.8,6,,
2021/1/6,4:00:00,13,���k��,2.1,-20.4,88.2,0,0,13,���k��,4,16,,
2021/1/6,5:00:00,13,���k��,2,-19.3,87.4,0,0,14,�k��,4.2,43,,
2021/1/6,6:00:00,14,�k��,2.3,-15.1,86.7,0,0.01,14,�k��,3.7,2,,
2021/1/6,7:00:00,13,���k��,1.4,-16,85.4,0,0.01,13,���k��,3.2,7,,
2021/1/6,8:00:00,13,���k��,1.8,-17.8,85.6,0,0.1,13,���k��,3,28,,
2021/1/6,9:00:00,13,���k��,1.3,-12.3,70.9,0,0.28,14,�k��,2.9,16,,
2021/1/6,10:00:00,13,���k��,1.1,-7.5,58.7,0,0.42,13,���k��,2.4,59,,
2021/1/6,11:00:00,16,�É�,0.2,-5.1,51.6,0,0.51,4,��,2.5,45,,
2021/1/6,12:00:00,-1.9,#N/A,39,0,0.55,,,,,,,,
2021/1/6,13:00:00,5,���쓌,2.1,-3.9,45.3,0,0.52,6,�쓌,3.5,55,,
2021/1/6,14:00:00,5,���쓌,1.1,-3.3,47.1,0,0.42,5,���쓌,3.4,16,,
2021/1/6,15:00:00,6,�쓌,0.8,-4.1,52.6,0,0.28,7,��쓌,2.7,7,,
2021/1/6,16:00:00,8,��,0.6,-7.3,55.7,0,0.09,6,�쓌,2.4,10,,
2021/1/6,17:00:00,12,��,1,-11.5,75.6,0,0.01,14,�k��,1.8,26,,
2021/1/6,18:00:00,13,���k��,2.1,-15.2,79.9,0,0,13,���k��,2.6,55,,
2021/1/6,19:00:00,14,�k��,1.5,-12.9,83,0,0,13,���k��,2.9,49,,
2021/1/6,20:00:00,14,�k��,1.6,-14.3,84.2,0,0,13,���k��,3,38,,
2021/1/6,21:00:00,12,��,0.8,-13.2,85.3,0,0,13,���k��,4.4,26,,
2021/1/6,22:00:00,13,���k��,2.5,-14.8,84.9,0,0,13,���k��,4.7,15,,
2021/1/6,23:00:00,13,���k��,1.5,-13.8,81.5,0,0,14,�k��,4.5,33,,
2021/1/6,0:00:00,13,���k��,1.3,-13,80,0,0,14,�k��,3.3,6,,
2021/1/7,1:00:00,14,�k��,2.1,-11,71.5,0,0,14,�k��,3.5,51,,
2021/1/7,2:00:00,14,�k��,2.7,-10.7,71.1,0,0,14,�k��,5.7,36,,
2021/1/7,3:00:00,-10.1,#N/A,71.4,0,0,,,,,,,,
2021/1/7,4:00:00,14,�k��,2.5,-9.9,71.9,0,0,15,�k�k��,4.7,58,,
2021/1/7,5:00:00,14,�k��,3.5,-9.8,83,0,0,14,�k��,6.1,54,,
2021/1/7,6:00:00,14,�k��,3,-9.6,92.2,0,0,15,�k�k��,6.7,15,,
2021/1/7,7:00:00,14,�k��,4.5,-9.4,92.3,0,0,14,�k��,7,53,,
2021/1/7,8:00:00,15,�k�k��,2.7,-8.7,92.4,0,0.02,14,�k��,6.5,32,,
2021/1/7,9:00:00,14,�k��,3.3,-8.3,93.4,0,0.03,13,���k��,6.2,59,,
2021/1/7,10:00:00,14,�k��,4.8,-8.1,93.8,0,0.06,14,�k��,9.2,11,,
2021/1/7,11:00:00,14,�k��,5.3,-7.7,93.8,0,0.08,14,�k��,9.4,49,,
2021/1/7,12:00:00,15,�k�k��,2.6,-7,94.2,0,0.1,14,�k��,9.2,34,,
2021/1/7,13:00:00,14,�k��,4.7,-6.3,90.7,0,0.19,14,�k��,8.9,40,,
2021/1/7,14:00:00,14,�k��,4.7,-5.6,86,0,0.23,14,�k��,8.5,16,,
2021/1/7,15:00:00,14,�k��,4.2,-5.5,88.6,0,0.08,14,�k��,7.8,2,,
2021/1/7,16:00:00,14,�k��,4.3,-5.6,90.6,0,0.02,13,���k��,7.6,54,,
2021/1/7,17:00:00,14,�k��,4,-5.7,91.2,0,0,14,�k��,7,27,,
2021/1/7,18:00:00,14,�k��,4.4,-5.2,90,0,0,14,�k��,8,19,,
2021/1/7,19:00:00,14,�k��,5.4,-5.7,95.5,0,0,14,�k��,9.2,57,,
2021/1/7,20:00:00,14,�k��,6.4,-5.7,95.9,0,0,14,�k��,10.3,54,,
2021/1/7,21:00:00,14,�k��,6.4,-5.7,97,0,0,13,���k��,11.6,40,,
2021/1/7,22:00:00,14,�k��,6.5,-5.5,97.6,0,0,14,�k��,10.7,58,,
2021/1/7,23:00:00,14,�k��,6.7,-5.3,97.8,0,0,15,�k�k��,12,5,,
2021/1/7,0:00:00,15,�k�k��,5.5,-5.1,97.6,0,0,14,�k��,11.5,20,,
2021/1/8,1:00:00,14,�k��,7.2,-4.8,96.7,0,0,14,�k��,14.7,11,,
2021/1/8,2:00:00,14,�k��,6.6,-4.6,96.7,0,0,14,�k��,12.7,45,,
2021/1/8,3:00:00,14,�k��,7.4,-4.8,95.5,0,0,15,�k�k��,14.6,42,,
2021/1/8,4:00:00,14,�k��,6.3,-3.8,89.2,0,0,14,�k��,13.8,6,,
2021/1/8,5:00:00,14,�k��,6.5,-3.6,84.1,0,0,14,�k��,12.3,34,,
2021/1/8,6:00:00,14,�k��,4.7,-3.3,68.1,0,0,14,�k��,10.4,22,,
2021/1/8,7:00:00,14,�k��,2.5,-3.7,66.5,0,0,14,�k��,7.7,31,,
2021/1/8,8:00:00,12,��,3.2,-4,68,0,0.04,12,��,4.6,59,,
2021/1/8,9:00:00,12,��,3.3,-3.7,61.7,0,0.12,12,��,5,6,,
2021/1/8,10:00:00,12,��,6.1,-3.6,58.1,0,0.21,12,��,8.4,53,,
2021/1/8,11:00:00,13,���k��,3.7,-2.8,50.5,0,0.3,13,���k��,8,1,,
2021/1/8,12:00:00,15,�k�k��,5.1,-2.9,42,0,0.38,14,�k��,8.6,59,,
2021/1/8,13:00:00,15,�k�k��,4,-3.2,47.3,0,0.31,14,�k��,9,12,,
2021/1/8,14:00:00,15,�k�k��,2.7,-3.5,49.7,0,0.29,15,�k�k��,9.7,0,,
2021/1/8,15:00:00,16,�k,3.7,-3.7,49.2,0.5,0.16,15,�k�k��,7,50,,
2021/1/8,16:00:00,15,�k�k��,2.3,-4,48,0,0.07,15,�k�k��,4.4,59,,
2021/1/8,17:00:00,13,���k��,2.3,-5.2,58.8,0,0.01,14,�k��,3.7,0,,
2021/1/8,18:00:00,13,���k��,1.9,-6.6,57.6,0,0,13,���k��,3.1,23,,
2021/1/8,19:00:00,13,���k��,2.8,-9.6,61.8,0,0,13,���k��,4.8,44,,
2021/1/8,20:00:00,15,�k�k��,1.9,-14.2,84.3,0,0,13,���k��,2.7,6,,
2021/1/8,21:00:00,14,�k��,2.1,-14.5,89.7,0,0,13,���k��,3.7,40,,
2021/1/8,22:00:00,14,�k��,1.5,-16.7,91.2,0,0,14,�k��,4.6,20,,
2021/1/8,23:00:00,13,���k��,1.5,-19.5,88,0,0,12,��,3.7,26,,
2021/1/8,0:00:00,13,���k��,2.3,-21.4,85.8,0,0,12,��,5,47,,
2021/1/9,1:00:00,13,���k��,1.7,-20,88.4,0,0,13,���k��,4.3,43,,
2021/1/9,2:00:00,13,���k��,2,-21.8,84.7,0,0,12,��,4,19,,
2021/1/9,3:00:00,12,��,3,-22.1,86.1,0,0,12,��,3.9,33,,
2021/1/9,4:00:00,13,���k��,3.5,-23.4,86.3,0,0,13,���k��,4.8,59,,
2021/1/9,5:00:00,13,���k��,3.2,-20.4,88.2,0,0,13,���k��,6.3,53,,
2021/1/9,6:00:00,12,��,4.2,-23.8,83.7,0,0.01,12,��,6.3,47,,
2021/1/9,7:00:00,12,��,2.2,-21.8,86.9,0,0.01,12,��,5.3,6,,
2021/1/9,8:00:00,13,���k��,2.8,-21.5,85.9,0,0.1,12,��,5,54,,
2021/1/9,9:00:00,14,�k��,2,-16.7,90,0,0.28,12,��,4.8,42,,
2021/1/9,10:00:00,9,��쐼,2,-9.6,91.6,0,0.43,8,��,3.6,59,,
2021/1/9,11:00:00,12,��,2.5,-4.8,41.8,0,0.52,9,��쐼,4.4,25,,
2021/1/9,12:00:00,2,�k��,2.4,-4.6,49.9,0.5,0.56,12,��,3.8,9,,
2021/1/9,13:00:00,16,�É�,0,-3.4,42.3,0,0.53,3,���k��,2.8,14,,
2021/1/9,14:00:00,16,�É�,0.1,-3.1,30.1,0,0.44,13,���k��,3.1,35,,
2021/1/9,15:00:00,13,���k��,1.5,-3.9,29.2,0,0.29,14,�k��,2.5,48,,
2021/1/9,16:00:00,13,���k��,1,-8.9,44.7,0,0.11,14,�k��,2.4,8,,
2021/1/9,17:00:00,11,���쐼,1.1,-12.2,73.5,0,0.01,11,���쐼,2.1,59,,
2021/1/9,18:00:00,12,��,2.7,-16.1,80.3,0,0,12,��,3.8,58,,
2021/1/9,19:00:00,13,���k��,2.9,-16.8,85.2,0,0,13,���k��,3.6,56,,
2021/1/9,20:00:00,13,���k��,2.4,-17.6,90.6,0,0,12,��,4.5,38,,
2021/1/9,21:00:00,13,���k��,2,-19.6,87.8,0,0,12,��,3.8,16,,
2021/1/9,22:00:00,13,���k��,2.7,-19.8,88.3,0,0,13,���k��,3.5,33,,
2021/1/9,23:00:00,13,���k��,1.9,-19.4,88.7,0,0,13,���k��,3.9,27,,
2021/1/9,0:00:00,13,���k��,1,-20.5,86.1,0,0,13,���k��,4.3,29,,
2021/1/10,1:00:00,13,���k��,2.9,-20.6,87.7,0,0,14,�k��,5.1,21,,
2021/1/10,2:00:00,14,�k��,2,-19.7,88.1,0,0,13,���k��,4.3,6,,
2021/1/10,3:00:00,13,���k��,2.4,-19,89.1,0,0,14,�k��,4.1,47,,
2021/1/10,4:00:00,12,��,2.6,-21.9,85,0,0,13,���k��,4,58,,
2021/1/10,5:00:00,13,���k��,2.9,-21.5,87.1,0,0,13,���k��,3.8,45,,
2021/1/10,6:00:00,13,���k��,2.3,-21.9,85.9,0,0,13,���k��,4.2,38,,
2021/1/10,7:00:00,13,���k��,2.7,-20.4,87.8,0,0.01,13,���k��,4.4,51,,
2021/1/10,8:00:00,12,��,2.5,-18.6,89.9,0,0.1,12,��,5.9,28,,
2021/1/10,9:00:00,14,�k��,1.7,-15.6,90,0,0.28,13,���k��,4.4,9,,
2021/1/10,10:00:00,14,�k��,1.9,-11.2,86.8,0,0.43,12,��,3.9,21,,
2021/1/10,11:00:00,15,�k�k��,2.1,-5.5,33.8,0,0.53,16,�k,3.4,44,,
2021/1/10,12:00:00,15,�k�k��,2,-4.6,31.7,0,0.56,16,�k,5,42,,
2021/1/10,13:00:00,14,�k��,1.9,-4.2,30.1,0,0.53,15,�k�k��,4.1,1,,
2021/1/10,14:00:00,16,�É�,0,-2.8,36,0,0.44,16,�k,2.1,1,,
2021/1/10,15:00:00,12,��,3.1,-5.6,36.7,0,0.29,13,���k��,5.1,54,,
2021/1/10,16:00:00,13,���k��,2.7,-9,47.5,0,0.11,13,���k��,6.2,21,,
2021/1/10,17:00:00,12,��,1.7,-13.5,54.6,0,0.01,14,�k��,3.2,11,,
2021/1/10,18:00:00,13,���k��,1.7,-13.2,54.7,0,0,12,��,2.7,7,,
2021/1/10,19:00:00,13,���k��,2.3,-19.2,73.9,0,0,13,���k��,3.3,31,,
2021/1/10,20:00:00,14,�k��,2.5,-16.8,87.2,0,0.01,13,���k��,3.7,22,,
2021/1/10,21:00:00,13,���k��,3.3,-19,86.7,0,0,13,���k��,4.2,54,,
2021/1/10,22:00:00,13,���k��,2.5,-17.9,81.9,0,0,14,�k��,4.1,7,,
2021/1/10,23:00:00,13,���k��,3.1,-20.3,75.2,0,0,13,���k��,4.4,39,,
2021/1/10,0:00:00,14,�k��,2.7,-18.6,82.6,0,0,13,���k��,4.4,16,,
2021/1/11,1:00:00,13,���k��,2.9,-20,83.6,0,0,13,���k��,4.3,56,,
2021/1/11,2:00:00,14,�k��,2.8,-19.5,87.7,0,0,13,���k��,4.5,59,,
2021/1/11,3:00:00,13,���k��,3.3,-19.4,87.8,0,0,14,�k��,5.5,46,,
2021/1/11,4:00:00,14,�k��,2.5,-19.7,88.8,0,0,14,�k��,4.8,10,,
2021/1/11,5:00:00,13,���k��,3.4,-19.5,88.2,0,0,12,��,4.8,38,,
2021/1/11,6:00:00,14,�k��,3.9,-19.8,88.5,0,0,13,���k��,5.3,18,,
2021/1/11,7:00:00,14,�k��,3.4,-20.5,86.6,0,0.01,13,���k��,4.7,40,,
2021/1/11,8:00:00,15,�k�k��,0.7,-19.7,86.9,0,0.1,12,��,5.8,12,,
2021/1/11,9:00:00,13,���k��,1.7,-16.8,87.3,0,0.27,12,��,3,24,,
2021/1/11,10:00:00,16,�É�,0.1,-12.6,77.5,0,0.43,13,���k��,2.9,9,,
2021/1/11,11:00:00,16,�k,0.5,-6.6,58.4,0,0.52,4,��,3.2,0,,
2021/1/11,12:00:00,4,��,2,-4.1,65,0,0.55,4,��,3.3,55,,
2021/1/11,13:00:00,2,�k��,1.9,-3.7,64.5,0.5,0.52,4,��,4.3,28,,
2021/1/11,14:00:00,2,�k��,2.5,-4.1,63.3,0,0.44,2,�k��,3.6,27,,
2021/1/11,15:00:00,5,���쓌,1.3,-5.8,64.1,0,0.28,3,���k��,2.7,0,,
2021/1/11,16:00:00,2,�k��,0.4,-6.9,71.7,0,0.11,2,�k��,2.3,15,,
2021/1/11,17:00:00,1,�k�k��,2.1,-14.2,81.8,0,0.01,1,�k�k��,2.5,55,,
2021/1/11,18:00:00,12,��,2,-17.6,88.2,0,0,13,���k��,2.5,52,,
2021/1/11,19:00:00,13,���k��,1.8,-15.5,84.8,0,0,13,���k��,2.7,5,,
2021/1/11,20:00:00,13,���k��,1.9,-16.8,82.8,0,0,13,���k��,3.6,23,,
2021/1/11,21:00:00,13,���k��,2.5,-17.7,86.6,0,0,13,���k��,3.8,50,,
2021/1/11,22:00:00,12,��,1.6,-18.6,90.6,0,0,13,���k��,3.5,32,,
2021/1/11,23:00:00,13,���k��,2.2,-18.9,87.9,0,0,13,���k��,4,30,,
2021/1/11,0:00:00,14,�k��,3.1,-17.6,88.8,0,0,14,�k��,3.9,53,,
2021/1/12,1:00:00,14,�k��,2.5,-17.3,87.8,0,0,13,���k��,4.1,35,,
2021/1/12,2:00:00,14,�k��,2.9,-16.8,87.3,0,0,13,���k��,4.2,20,,
2021/1/12,3:00:00,13,���k��,1.8,-16,81.8,0,0,13,���k��,3.8,26,,
2021/1/12,4:00:00,13,���k��,1.5,-14.1,79.8,0,0,14,�k��,3.5,8,,
2021/1/12,5:00:00,14,�k��,2.5,-12.5,75.7,0,0,14,�k��,5,47,,
2021/1/12,6:00:00,14,�k��,1.5,-12.6,76.7,0,0,14,�k��,3.6,43,,
2021/1/12,7:00:00,14,�k��,1.9,-10.4,66.6,0,0.01,14,�k��,3.7,49,,
2021/1/12,8:00:00,14,�k��,2.5,-9.9,65.6,0,0.04,14,�k��,4.9,39,,
2021/1/12,9:00:00,13,���k��,2,-9.7,64.6,0,0.13,14,�k��,4.4,17,,
2021/1/12,10:00:00,14,�k��,2.9,-7.8,56.4,0,0.26,15,�k�k��,4.2,56,,
2021/1/12,11:00:00,14,�k��,0.8,-5,60.7,0,0.35,14,�k��,3.9,6,,
2021/1/12,12:00:00,1,�k�k��,1.5,-4.1,75.8,0,0.27,1,�k�k��,3.4,9,,
2021/1/12,13:00:00,2,�k��,1.6,-4,83.3,0,0.19,2,�k��,2.8,22,,
2021/1/12,14:00:00,15,�k�k��,1.3,-4.5,79,0,0.12,14,�k��,2.7,36,,
2021/1/12,15:00:00,14,�k��,2.4,-4.7,77.5,0,0.1,14,�k��,3.4,58,,
2021/1/12,16:00:00,14,�k��,2.8,-5.1,78.4,0,0.03,14,�k��,4.8,59,,
2021/1/12,17:00:00,14,�k��,2.4,-5.1,80.7,0,0.01,14,�k��,5,22,,
2021/1/12,18:00:00,14,�k��,3.4,-5.6,79.4,0,0,15,�k�k��,6.5,34,,
2021/1/12,19:00:00,14,�k��,3.5,-5.5,82.3,0,0,14,�k��,6.1,1,,
2021/1/12,20:00:00,14,�k��,3.9,-5.4,85.8,0,0,13,���k��,6.2,52,,
2021/1/12,21:00:00,14,�k��,2.7,-5.3,93,0,0,13,���k��,6.8,21,,
2021/1/12,22:00:00,14,�k��,2,-5.2,95.9,0,0,14,�k��,4.3,32,,
2021/1/12,23:00:00,14,�k��,2.9,-5.1,96.9,0,0,13,���k��,4.9,58,,
2021/1/12,0:00:00,14,�k��,3.7,-5.1,96.4,0,0,14,�k��,6.5,56,,
2021/1/13,1:00:00,14,�k��,3.2,-4.8,96.6,0,0,13,���k��,6.7,14,,
2021/1/13,2:00:00,14,�k��,3.8,-4.4,96.3,0,0,14,�k��,5.7,46,,
2021/1/13,3:00:00,14,�k��,2.9,-4.2,96.8,0,0,14,�k��,6.5,7,,
2021/1/13,4:00:00,14,�k��,1,-4,98.2,0,0,14,�k��,5,5,,
2021/1/13,5:00:00,13,���k��,2.1,-3.9,97.9,0,0,13,���k��,3,54,,
2021/1/13,6:00:00,15,�k�k��,0.3,-3.6,98.4,0,0,14,�k��,2.2,31,,
2021/1/13,7:00:00,13,���k��,1.3,-3.6,98.2,0,0,12,��,2.3,29,,
2021/1/13,8:00:00,13,���k��,1.7,-3.5,98.7,0,0.03,14,�k��,3.3,58,,
2021/1/13,9:00:00,13,���k��,2.5,-2.3,94,0,0.09,12,��,4,0,,
2021/1/13,10:00:00,11,���쐼,1.3,-2,92.9,0,0.12,12,��,4.5,0,,
2021/1/13,11:00:00,13,���k��,2.3,0.2,81.8,0,0.47,13,���k��,3.6,47,,
2021/1/13,12:00:00,12,��,1.4,1.8,72.7,0,0.57,12,��,2.8,9,,
2021/1/13,13:00:00,6,�쓌,6.9,3.6,50.2,2.5,0.51,6,�쓌,11.8,54,,
2021/1/13,14:00:00,12,��,6.8,3,51.4,1.5,0.32,11,���쐼,9.8,0,,
2021/1/13,15:00:00,12,��,3.5,2.1,57.9,0.5,0.26,11,���쐼,9.1,5,,
2021/1/13,16:00:00,12,��,4.9,1.3,61.2,0.5,0.09,12,��,8.5,56,,
2021/1/13,17:00:00,14,�k��,0.7,-2.9,78,0,0.01,12,��,9.8,11,,
2021/1/13,18:00:00,11,���쐼,3.6,-1.4,75.7,0,0,11,���쐼,8.1,38,,
2021/1/13,19:00:00,10,�쐼,3.9,-1.6,77.8,0,0,10,�쐼,8,23,,
2021/1/13,20:00:00,11,���쐼,4.7,0.2,55.1,0,0,12,��,10.3,37,,
2021/1/13,21:00:00,11,���쐼,2.1,-3.4,65.7,0,0,12,��,7.7,13,,
2021/1/13,22:00:00,12,��,0.6,-9.1,93.2,0,0,11,���쐼,2.8,3,,
2021/1/13,23:00:00,12,��,2.4,-10.5,95.8,0,0,12,��,3.4,57,,
2021/1/13,0:00:00,13,���k��,1.5,-12,93.9,0,0,12,��,3.4,32,,
2021/1/14,1:00:00,13,���k��,2,-8.9,95.9,0,0,12,��,3,34,,
2021/1/14,2:00:00,11,���쐼,4.3,-1.1,68.5,0,0,10,�쐼,6.6,59,,
2021/1/14,3:00:00,11,���쐼,1,-2.6,73.4,0,0,10,�쐼,7,1,,
2021/1/14,4:00:00,-6.6,#N/A,89.7,0,0,,,,,,,,
2021/1/14,5:00:00,10,�쐼,1.6,-4,86.4,0,0,12,��,3.3,5,,
2021/1/14,6:00:00,8,��,2.5,-0.6,98.7,0,0,7,��쓌,5.2,57,,
2021/1/14,7:00:00,8,��,3.4,-0.2,97.2,0,0.01,7,��쓌,6.9,51,,
2021/1/14,8:00:00,9,��쐼,2.5,0.9,88,0,0.07,7,��쓌,7,25,,
2021/1/14,9:00:00,10,�쐼,2.6,0.8,95.7,0.5,0.09,8,��,10,38,,
2021/1/14,10:00:00,5,���쓌,4.7,2.6,75,1,0.3,4,��,8.7,59,,
2021/1/14,11:00:00,2,�k��,7.4,3.3,45.3,0,0.5,2,�k��,11.8,57,,
2021/1/14,12:00:00,3,���k��,8.1,2,49.2,0,0.55,2,�k��,15.9,10,,
2021/1/14,13:00:00,2,�k��,7.4,0.3,64.9,0,0.54,3,���k��,12.3,23,,
2021/1/14,14:00:00,3,���k��,6.2,0.1,59.5,0,0.44,3,���k��,13,21,,
2021/1/14,15:00:00,3,���k��,7.6,-0.9,46.7,0,0.31,3,���k��,13.3,29,,
2021/1/14,16:00:00,13,���k��,4.1,-2.5,62.9,0,0.11,3,���k��,12.9,17,,
2021/1/14,17:00:00,12,��,8.1,-3.6,65.5,0,0.01,12,��,12,34,,
2021/1/14,18:00:00,12,��,5.1,-4.5,69.1,0,0,12,��,10.8,8,,
2021/1/14,19:00:00,13,���k��,4.9,-5.6,56.4,0,0,13,���k��,8.4,47,,
2021/1/14,20:00:00,13,���k��,3.6,-5.9,50.8,0.5,0,14,�k��,8.2,37,,
2021/1/14,21:00:00,13,���k��,3,-7.1,56.4,0,0,14,�k��,6.3,56,,
2021/1/14,22:00:00,12,��,2.6,-8.6,60.4,0,0,13,���k��,5.5,1,,
2021/1/14,23:00:00,16,�k,0.7,-11.8,66.1,0,0,13,���k��,3.3,19,,
2021/1/14,0:00:00,14,�k��,2,-10.1,61.3,0,0,14,�k��,2.7,57,,
2021/1/15,1:00:00,14,�k��,3.4,-7,54.2,0,0,14,�k��,5.4,57,,
2021/1/15,2:00:00,6,�쓌,0.7,-13.7,73.9,0,0,14,�k��,4.2,2,,
2021/1/15,3:00:00,3,���k��,1.2,-14.7,71.1,0,0,9,��쐼,2.2,26,,
2021/1/15,4:00:00,15,�k�k��,0.7,-18.6,82.9,0,0,2,�k��,3.7,8,,
2021/1/15,5:00:00,13,���k��,2.3,-17.6,85,0,0,13,���k��,3.2,58,,
2021/1/15,6:00:00,13,���k��,2.5,-15.5,90.7,0,0,12,��,3.9,48,,
2021/1/15,7:00:00,14,�k��,2.9,-15.3,88.1,0,0.01,14,�k��,4,23,,
2021/1/15,8:00:00,13,���k��,2.6,-16.1,84.4,0,0.08,13,���k��,3.6,54,,
2021/1/15,9:00:00,13,���k��,1.9,-11.7,77.9,0,0.23,13,���k��,3.3,38,,
2021/1/15,10:00:00,13,���k��,1.8,-7.7,67,0,0.38,13,���k��,3.2,46,,
2021/1/15,11:00:00,12,��,1,-3.2,58.8,0,0.48,14,�k��,2.3,11,,
2021/1/15,12:00:00,6,�쓌,1.3,-1.8,56,0,0.49,6,�쓌,2.9,47,,
2021/1/15,13:00:00,6,�쓌,1.8,-2.3,59.4,0,0.38,6,�쓌,3.3,25,,
2021/1/15,14:00:00,6,�쓌,2,-2.6,66.7,0,0.17,6,�쓌,3.2,49,,
2021/1/15,15:00:00,7,��쓌,1.1,-2.3,66.9,0,0.12,7,��쓌,3,34,,
2021/1/15,16:00:00,7,��쓌,1.1,-2.9,68.3,0,0.07,6,�쓌,2.8,34,,
2021/1/15,17:00:00,16,�k,0.6,-8.2,79.2,0,0.01,10,�쐼,2.4,24,,
2021/1/15,18:00:00,13,���k��,1.4,-11.1,89.4,0,0,15,�k�k��,3.4,10,,
2021/1/15,19:00:00,13,���k��,1.6,-10.7,87.9,0,0,13,���k��,2.3,57,,
2021/1/15,20:00:00,14,�k��,2.2,-7.1,86.9,0,0,14,�k��,3.3,43,,
2021/1/15,21:00:00,14,�k��,2.2,-6.3,81.7,0,0,14,�k��,3.4,59,,
2021/1/15,22:00:00,13,���k��,1.9,-7.5,84,0,0,14,�k��,4,14,,
2021/1/15,23:00:00,12,��,1.3,-7.2,81.8,0,0,12,��,2.9,36,,
2021/1/15,0:00:00,1,�k�k��,0.4,-7.4,86.9,0,0,13,���k��,3,13,,
2021/1/16,1:00:00,13,���k��,1.8,-7,85.7,0,0,13,���k��,3,53,,
2021/1/16,2:00:00,14,�k��,1.6,-6.2,86,0,0,14,�k��,3.5,9,,
2021/1/16,3:00:00,14,�k��,3.2,-6.6,95,0,0,14,�k��,5.1,54,,
2021/1/16,4:00:00,14,�k��,2.7,-6.6,96.4,0,0,14,�k��,4.7,25,,
2021/1/16,5:00:00,14,�k��,3.1,-6.2,96.8,0,0,14,�k��,5.9,59,,
2021/1/16,6:00:00,14,�k��,3.9,-5.8,97,0,0,14,�k��,8.4,40,,
2021/1/16,7:00:00,14,�k��,3.4,-5.3,95.1,0,0,14,�k��,8.1,9,,
2021/1/16,8:00:00,13,���k��,2.1,-4.4,95.4,0,0.02,14,�k��,5.8,24,,
2021/1/16,9:00:00,13,���k��,3,-4.2,94,0,0.09,13,���k��,4.3,52,,
2021/1/16,10:00:00,11,���쐼,3.6,1.9,93,0,0.15,11,���쐼,6.7,56,,
2021/1/16,11:00:00,10,�쐼,6.2,6.1,53.4,0,0.23,10,�쐼,11.5,19,,
2021/1/16,12:00:00,11,���쐼,8.1,5.6,52.3,2,0.3,11,���쐼,14.6,41,,
2021/1/16,13:00:00,11,���쐼,6.5,5,57.7,2.5,0.38,11,���쐼,10.5,56,,
2021/1/16,14:00:00,11,���쐼,6,4.4,62.5,1,0.3,11,���쐼,12.2,12,,
2021/1/16,15:00:00,11,���쐼,6.7,4.6,58.4,0.5,0.23,11,���쐼,12.5,14,,
2021/1/16,16:00:00,12,��,4.6,3.7,56.2,0,0.12,10,�쐼,11.7,1,,
2021/1/16,17:00:00,14,�k��,1.9,1.2,76.4,0,0.01,12,��,9.2,5,,
2021/1/16,18:00:00,13,���k��,2.1,-2.3,88.4,0.5,0,13,���k��,3.1,58,,